| time (UTC) | temp F | wind direction | speed MPH | gust MPH | rain 1hr in | rain 24hr in | rain mn in | humidity % | barometer mb |
| 20260901095818 | 76 | 360 | 0.0 | 0.0 | 0.00 | 0.00 | 0.00 | 95 | 1015.0 |
| 20260901095317 | 76 | 360 | 0.0 | 0.0 | 0.00 | 0.00 | 0.00 | 95 | 1015.0 |
| 20260901094815 | 76 | 360 | 0.0 | 0.0 | 0.00 | 0.00 | 0.00 | 95 | 1015.0 |
| 20260901094314 | 76 | 360 | 0.0 | 0.0 | 0.00 | 0.00 | 0.00 | 94 | 1015.0 |
| 20260901093814 | 76 | 360 | 0.0 | 0.0 | 0.00 | 0.00 | 0.00 | 94 | 1015.0 |
| 20260901093335 | 76 | 360 | 0.0 | 0.0 | 0.00 | 0.00 | 0.00 | 94 | 1015.0 |
| 20260901092813 | 76 | 360 | 0.0 | 0.0 | 0.00 | 0.00 | 0.00 | 94 | 1015.1 |
| 20260901092311 | 76 | 360 | 0.0 | 0.0 | 0.00 | 0.00 | 0.00 | 94 | 1015.2 |
| 20260901091851 | 76 | 360 | 0.0 | 0.0 | 0.00 | 0.00 | 0.00 | 94 | 1015.2 |
| 20260901091327 | 76 | 360 | 0.0 | 0.0 | 0.00 | 0.00 | 0.00 | 94 | 1015.2 |
| 20260901090826 | 76 | 360 | 0.0 | 0.0 | 0.00 | 0.00 | 0.00 | 94 | 1015.2 |
| 20260901090325 | 76 | 360 | 0.0 | 0.0 | 0.00 | 0.00 | 0.00 | 93 | 1015.2 |
| 20260901085823 | 76 | 360 | 0.0 | 0.0 | 0.00 | 0.00 | 0.00 | 93 | 1015.2 |
| 20260901085323 | 77 | 360 | 0.0 | 0.0 | 0.00 | 0.00 | 0.00 | 93 | 1015.3 |
| 20260901084821 | 77 | 360 | 0.0 | 0.0 | 0.00 | 0.00 | 0.00 | 93 | 1015.3 |
| 20260901084340 | 77 | 360 | 0.0 | 0.0 | 0.00 | 0.00 | 0.00 | 93 | 1015.3 |
| 20260901083817 | 77 | 360 | 0.0 | 0.0 | 0.00 | 0.00 | 0.00 | 93 | 1015.4 |
| 20260901083315 | 77 | 360 | 0.0 | 0.0 | 0.00 | 0.00 | 0.00 | 93 | 1015.4 |
| 20260901082815 | 77 | 360 | 0.0 | 0.0 | 0.00 | 0.00 | 0.00 | 93 | 1015.3 |
| 20260901082353 | 77 | 360 | 0.0 | 0.0 | 0.00 | 0.00 | 0.00 | 93 | 1015.4 |
| 20260901081829 | 77 | 360 | 0.0 | 0.0 | 0.00 | 0.00 | 0.00 | 93 | 1015.3 |
| 20260901081329 | 78 | 360 | 0.0 | 0.0 | 0.00 | 0.00 | 0.00 | 92 | 1015.3 |
| 20260901080829 | 78 | 360 | 0.0 | 0.0 | 0.00 | 0.00 | 0.00 | 92 | 1015.2 |
| 20260901080330 | 78 | 360 | 0.0 | 0.0 | 0.00 | 0.00 | 0.00 | 92 | 1015.2 |
| 20260901075847 | 78 | 360 | 0.0 | 0.0 | 0.00 | 0.00 | 0.00 | 92 | 1015.1 |
| 20260901075344 | 78 | 360 | 0.0 | 0.0 | 0.00 | 0.00 | 0.00 | 91 | 1015.2 |
| 20260901074823 | 78 | 360 | 0.0 | 0.0 | 0.00 | 0.00 | 0.00 | 91 | 1015.1 |
| 20260901074321 | 78 | 360 | 0.0 | 0.0 | 0.00 | 0.00 | 0.00 | 91 | 1015.0 |
| 20260901073822 | 78 | 360 | 0.0 | 0.0 | 0.00 | 0.00 | 0.00 | 91 | 1015.0 |
| 20260901073321 | 79 | 360 | 0.0 | 0.0 | 0.00 | 0.00 | 0.00 | 90 | 1015.0 |
| 20260901072821 | 79 | 360 | 0.0 | 0.0 | 0.00 | 0.00 | 0.00 | 90 | 1015.1 |
| 20260901072321 | 79 | 360 | 0.0 | 0.0 | 0.00 | 0.00 | 0.00 | 90 | 1015.1 |
| 20260901071837 | 79 | 360 | 0.0 | 1.0 | 0.00 | 0.00 | 0.00 | 89 | 1015.2 |
| 20260901071314 | 79 | 360 | 0.0 | 1.0 | 0.00 | 0.00 | 0.00 | 89 | 1015.2 |
| 20260901070814 | 79 | 360 | 0.0 | 0.0 | 0.00 | 0.00 | 0.00 | 89 | 1015.2 |
| 20260901070314 | 79 | 360 | 0.0 | 2.0 | 0.00 | 0.00 | 0.00 | 89 | 1015.1 |
| 20260901065813 | 79 | 360 | 1.0 | 3.0 | 0.00 | 0.00 | 0.00 | 88 | 1015.1 |
| 20260901065312 | 80 | 360 | 1.0 | 4.0 | 0.00 | 0.00 | 0.00 | 88 | 1015.1 |
| 20260901064833 | 80 | 360 | 1.0 | 5.0 | 0.00 | 0.00 | 0.00 | 88 | 1015.1 |
| 20260901064330 | 80 | 360 | 2.0 | 5.0 | 0.00 | 0.00 | 0.00 | 88 | 1015.0 |
| 20260901063829 | 80 | 360 | 2.0 | 5.0 | 0.00 | 0.00 | 0.00 | 88 | 1015.1 |
| 20260901063328 | 80 | 360 | 1.0 | 3.0 | 0.00 | 0.00 | 0.00 | 87 | 1015.1 |
| 20260901062826 | 80 | 360 | 1.0 | 3.0 | 0.00 | 0.00 | 0.00 | 86 | 1015.0 |
| 20260901062324 | 80 | 360 | 1.0 | 3.0 | 0.00 | 0.00 | 0.00 | 86 | 1014.9 |
| 20260901061823 | 81 | 360 | 2.0 | 3.0 | 0.00 | 0.00 | 0.00 | 85 | 1014.9 |
| 20260901061322 | 81 | 360 | 2.0 | 3.0 | 0.00 | 0.00 | 0.00 | 85 | 1014.9 |
| 20260901060820 | 81 | 360 | 1.0 | 2.0 | 0.00 | 0.00 | 0.00 | 84 | 1014.8 |
| 20260901060318 | 81 | 360 | 1.0 | 3.0 | 0.00 | 0.00 | 0.00 | 84 | 1014.9 |
| 20260901055812 | 81 | 360 | 1.0 | 4.0 | 0.00 | 0.00 | 0.00 | 84 | 1014.9 |
| 20260901055331 | 82 | 360 | 2.0 | 3.0 | 0.00 | 0.00 | 0.00 | 84 | 1014.9 |
| 20260901054830 | 82 | 360 | 2.0 | 3.0 | 0.00 | 0.00 | 0.00 | 83 | 1014.8 |
| 20260901054328 | 82 | 360 | 0.0 | 2.0 | 0.00 | 0.00 | 0.00 | 83 | 1014.9 |
| 20260901053827 | 82 | 360 | 1.0 | 3.0 | 0.00 | 0.00 | 0.00 | 82 | 1014.9 |
| 20260901053326 | 83 | 360 | 1.0 | 3.0 | 0.00 | 0.00 | 0.00 | 82 | 1014.9 |
| 20260901052823 | 83 | 360 | 1.0 | 4.0 | 0.00 | 0.00 | 0.00 | 81 | 1014.9 |
| 20260901052321 | 83 | 360 | 2.0 | 4.0 | 0.00 | 0.00 | 0.00 | 81 | 1014.7 |
| 20260901051818 | 83 | 360 | 2.0 | 4.0 | 0.00 | 0.00 | 0.00 | 81 | 1014.7 |
| 20260901051315 | 84 | 360 | 2.0 | 6.0 | 0.00 | 0.00 | 0.00 | 80 | 1014.8 |
| 20260901050813 | 84 | 360 | 2.0 | 6.0 | 0.00 | 0.00 | 0.00 | 80 | 1014.6 |
| 20260901050351 | 84 | 360 | 3.0 | 6.0 | 0.00 | 0.00 | 0.00 | 80 | 1014.7 |
| 20260901045830 | 84 | 360 | 4.0 | 9.0 | 0.00 | 0.00 | 0.00 | 79 | 1014.7 |
| 20260901045348 | 84 | 360 | 5.0 | 10.0 | 0.00 | 0.00 | 0.00 | 79 | 1014.6 |
| 20260901044825 | 84 | 360 | 5.0 | 10.0 | 0.00 | 0.00 | 0.00 | 79 | 1014.6 |
| 20260901044346 | 85 | 360 | 5.0 | 10.0 | 0.00 | 0.00 | 0.00 | 78 | 1014.6 |
| 20260901043825 | 85 | 360 | 3.0 | 10.0 | 0.00 | 0.00 | 0.00 | 78 | 1014.5 |
| 20260901043325 | 85 | 360 | 3.0 | 13.0 | 0.00 | 0.00 | 0.00 | 77 | 1014.5 |
| 20260901042845 | 85 | 360 | 4.0 | 13.0 | 0.00 | 0.00 | 0.00 | 77 | 1014.6 |
| 20260901042323 | 85 | 360 | 3.0 | 11.0 | 0.00 | 0.00 | 0.00 | 77 | 1014.5 |
| 20260901041823 | 85 | 360 | 3.0 | 6.0 | 0.00 | 0.00 | 0.00 | 76 | 1014.5 |
| 20260901041324 | 86 | 360 | 2.0 | 8.0 | 0.00 | 0.00 | 0.00 | 75 | 1014.4 |
| 20260901040823 | 86 | 360 | 4.0 | 8.0 | 0.00 | 0.00 | 0.00 | 75 | 1014.4 |
| 20260901040323 | 86 | 360 | 4.0 | 8.0 | 0.00 | 0.00 | 0.00 | 74 | 1014.3 |
| 20260901035817 | 86 | 360 | 4.0 | 9.0 | 0.00 | 0.00 | 0.00 | 73 | 1014.3 |
| 20260901035336 | 86 | 360 | 4.0 | 10.0 | 0.00 | 0.00 | 0.00 | 73 | 1014.4 |
| 20260901034815 | 87 | 360 | 6.0 | 10.0 | 0.00 | 0.00 | 0.00 | 72 | 1014.4 |
| 20260901034315 | 87 | 360 | 5.0 | 12.0 | 0.00 | 0.00 | 0.00 | 71 | 1014.4 |
| 20260901033834 | 87 | 360 | 6.0 | 12.0 | 0.00 | 0.00 | 0.00 | 70 | 1014.3 |
| 20260901033331 | 87 | 360 | 4.0 | 10.0 | 0.00 | 0.00 | 0.00 | 70 | 1014.3 |
| 20260901032830 | 87 | 360 | 3.0 | 8.0 | 0.00 | 0.00 | 0.00 | 70 | 1014.3 |
| 20260901032326 | 87 | 360 | 3.0 | 8.0 | 0.00 | 0.00 | 0.00 | 70 | 1014.3 |
| 20260901031825 | 87 | 360 | 3.0 | 9.0 | 0.00 | 0.00 | 0.00 | 69 | 1014.2 |
| 20260901031326 | 87 | 360 | 3.0 | 9.0 | 0.00 | 0.00 | 0.00 | 69 | 1014.1 |
| 20260901030825 | 87 | 360 | 4.0 | 9.0 | 0.00 | 0.00 | 0.00 | 69 | 1014.0 |
| 20260901030325 | 88 | 360 | 3.0 | 8.0 | 0.00 | 0.00 | 0.00 | 69 | 1014.0 |
| 20260901025824 | 88 | 360 | 3.0 | 8.0 | 0.00 | 0.00 | 0.00 | 69 | 1013.9 |
| 20260901025343 | 88 | 360 | 2.0 | 6.0 | 0.00 | 0.00 | 0.00 | 69 | 1013.8 |
| 20260901024822 | 88 | 360 | 2.0 | 6.0 | 0.00 | 0.00 | 0.00 | 68 | 1013.7 |
| 20260901024322 | 89 | 360 | 3.0 | 6.0 | 0.00 | 0.00 | 0.00 | 67 | 1013.6 |
| 20260901023821 | 89 | 360 | 2.0 | 6.0 | 0.00 | 0.00 | 0.00 | 67 | 1013.5 |
| 20260901023320 | 89 | 360 | 3.0 | 9.0 | 0.00 | 0.00 | 0.00 | 67 | 1013.4 |
| 20260901022820 | 89 | 360 | 3.0 | 9.0 | 0.00 | 0.00 | 0.00 | 66 | 1013.3 |
| 20260901022321 | 89 | 360 | 3.0 | 9.0 | 0.00 | 0.00 | 0.00 | 66 | 1013.2 |
| 20260901021820 | 89 | 360 | 4.0 | 12.0 | 0.00 | 0.00 | 0.00 | 65 | 1013.2 |
| 20260901021319 | 90 | 360 | 4.0 | 12.0 | 0.00 | 0.00 | 0.00 | 65 | 1013.1 |
| 20260901020818 | 90 | 360 | 5.0 | 12.0 | 0.00 | 0.00 | 0.00 | 64 | 1012.9 |
| 20260901020339 | 90 | 360 | 5.0 | 12.0 | 0.00 | 0.00 | 0.00 | 64 | 1012.9 |
| 20260901015817 | 89 | 360 | 5.0 | 11.0 | 0.00 | 0.00 | 0.00 | 63 | 1012.9 |
| 20260901015317 | 89 | 360 | 5.0 | 11.0 | 0.00 | 0.00 | 0.00 | 63 | 1012.8 |
| 20260901014838 | 89 | 360 | 4.0 | 13.0 | 0.00 | 0.00 | 0.00 | 62 | 1012.7 |
| 20260901014338 | 88 | 360 | 3.0 | 13.0 | 0.00 | 0.00 | 0.00 | 61 | 1012.6 |
| 20260901013817 | 87 | 360 | 4.0 | 11.0 | 0.00 | 0.00 | 0.00 | 59 | 1012.6 |
| 20260901013338 | 88 | 360 | 3.0 | 6.0 | 0.00 | 0.00 | 0.00 | 59 | 1012.6 |
| 20260901012818 | 88 | 360 | 0.0 | 0.0 | 0.00 | 0.00 | 0.00 | 57 | 1012.5 |
| 20260901012321 | 89 | 360 | 0.0 | 1.0 | 0.00 | 0.00 | 0.00 | 58 | 1012.4 |
| 20260901011822 | 90 | 360 | 0.0 | 1.0 | 0.00 | 0.00 | 0.00 | 57 | 1012.3 |
| 20260901011322 | 90 | 360 | 0.0 | 5.0 | 0.00 | 0.00 | 0.00 | 57 | 1012.2 |
| 20260901010822 | 91 | 360 | 1.0 | 5.0 | 0.00 | 0.00 | 0.00 | 54 | 1012.2 |
| 20260901010342 | 91 | 360 | 1.0 | 9.0 | 0.00 | 0.00 | 0.00 | 56 | 1012.1 |
| 20260901005821 | 91 | 360 | 2.0 | 9.0 | 0.00 | 0.00 | 0.00 | 52 | 1012.0 |
| 20260901005320 | 92 | 360 | 1.0 | 8.0 | 0.00 | 0.00 | 0.00 | 54 | 1012.0 |
| 20260901004818 | 92 | 360 | 3.0 | 8.0 | 0.00 | 0.00 | 0.00 | 55 | 1012.0 |
| 20260901004319 | 93 | 360 | 2.0 | 5.0 | 0.00 | 0.00 | 0.00 | 53 | 1012.0 |
| 20260901003819 | 93 | 360 | 1.0 | 5.0 | 0.00 | 0.00 | 0.00 | 52 | 1012.1 |
| 20260901003320 | 94 | 360 | 1.0 | 8.0 | 0.00 | 0.00 | 0.00 | 52 | 1012.1 |
| 20260901002821 | 94 | 360 | 3.0 | 8.0 | 0.00 | 0.00 | 0.00 | 50 | 1012.0 |
| 20260901002320 | 94 | 360 | 2.0 | 8.0 | 0.00 | 0.00 | 0.00 | 53 | 1011.9 |
| 20260901001820 | 94 | 360 | 2.0 | 5.0 | 0.00 | 0.00 | 0.00 | 53 | 1011.9 |
| 20260901001318 | 94 | 360 | 1.0 | 5.0 | 0.00 | 0.00 | 0.00 | 50 | 1011.9 |
| 20260901000818 | 95 | 360 | 2.0 | 8.0 | 0.00 | 0.00 | 0.00 | 49 | 1011.8 |
| 20260901000321 | 95 | 360 | 3.0 | 8.0 | 0.00 | 0.00 | 0.00 | 49 | 1011.8 |
| 20260831235819 | 95 | 360 | 2.0 | 9.0 | 0.00 | 0.00 | 0.00 | 48 | 1011.8 |
| 20260831235353 | 96 | 360 | 1.0 | 9.0 | 0.00 | 0.00 | 0.00 | 48 | 1011.7 |
| 20260831234813 | 96 | 360 | 3.0 | 9.0 | 0.00 | 0.00 | 0.00 | 47 | 1011.7 |
| 20260831234333 | 96 | 360 | 4.0 | 9.0 | 0.00 | 0.00 | 0.00 | 47 | 1011.7 |
| 20260831233831 | 96 | 360 | 2.0 | 9.0 | 0.00 | 0.00 | 0.00 | 46 | 1011.7 |
| 20260831233351 | 97 | 360 | 4.0 | 9.0 | 0.00 | 0.00 | 0.00 | 48 | 1011.6 |
| 20260831232828 | 97 | 360 | 3.0 | 8.0 | 0.00 | 0.00 | 0.00 | 45 | 1011.6 |
| 20260831232326 | 97 | 360 | 3.0 | 6.0 | 0.00 | 0.00 | 0.00 | 45 | 1011.6 |
| 20260831231826 | 97 | 360 | 2.0 | 9.0 | 0.00 | 0.00 | 0.00 | 44 | 1011.6 |
| 20260831231326 | 98 | 360 | 3.0 | 9.0 | 0.00 | 0.00 | 0.00 | 47 | 1011.7 |
| 20260831230825 | 99 | 360 | 2.0 | 4.0 | 0.00 | 0.00 | 0.00 | 46 | 1011.7 |
| 20260831230325 | 99 | 360 | 1.0 | 6.0 | 0.00 | 0.00 | 0.00 | 44 | 1011.7 |
| 20260831225826 | 100 | 360 | 2.0 | 8.0 | 0.00 | 0.00 | 0.00 | 42 | 1011.8 |
| 20260831225325 | 101 | 360 | 3.0 | 9.0 | 0.00 | 0.00 | 0.00 | 41 | 1011.8 |
| 20260831224826 | 102 | 360 | 5.0 | 9.0 | 0.00 | 0.00 | 0.00 | 40 | 1011.7 |
| 20260831224324 | 102 | 360 | 4.0 | 9.0 | 0.00 | 0.00 | 0.00 | 42 | 1011.8 |
| 20260831223824 | 102 | 360 | 4.0 | 13.0 | 0.00 | 0.00 | 0.00 | 42 | 1011.8 |
| 20260831223322 | 102 | 360 | 5.0 | 13.0 | 0.00 | 0.00 | 0.00 | 42 | 1011.9 |
| 20260831222822 | 102 | 360 | 3.0 | 14.0 | 0.00 | 0.00 | 0.00 | 43 | 1011.9 |
| 20260831222321 | 102 | 360 | 6.0 | 14.0 | 0.00 | 0.00 | 0.00 | 41 | 1011.9 |
| 20260831221820 | 102 | 360 | 4.0 | 8.0 | 0.00 | 0.00 | 0.00 | 43 | 1011.9 |
| 20260831221340 | 102 | 360 | 3.0 | 8.0 | 0.00 | 0.00 | 0.00 | 41 | 1011.9 |
| 20260831220818 | 101 | 360 | 2.0 | 8.0 | 0.00 | 0.00 | 0.00 | 45 | 1011.9 |
| 20260831220316 | 101 | 360 | 3.0 | 6.0 | 0.00 | 0.00 | 0.00 | 45 | 1012.0 |
| 20260831215817 | 100 | 360 | 2.0 | 5.0 | 0.00 | 0.00 | 0.00 | 45 | 1012.1 |
| 20260831215319 | 100 | 360 | 2.0 | 9.0 | 0.00 | 0.00 | 0.00 | 51 | 1012.1 |
| 20260831214818 | 99 | 360 | 5.0 | 9.0 | 0.00 | 0.00 | 0.00 | 44 | 1012.2 |
| 20260831214338 | 97 | 360 | 4.0 | 6.0 | 0.00 | 0.00 | 0.00 | 48 | 1012.2 |
| 20260831213815 | 96 | 360 | 4.0 | 6.0 | 0.00 | 0.00 | 0.00 | 48 | 1012.3 |
| 20260831213314 | 96 | 360 | 2.0 | 6.0 | 0.00 | 0.00 | 0.00 | 51 | 1012.4 |
| 20260831212813 | 96 | 360 | 2.0 | 5.0 | 0.00 | 0.00 | 0.00 | 53 | 1012.5 |
| 20260831212313 | 96 | 360 | 1.0 | 4.0 | 0.00 | 0.00 | 0.00 | 49 | 1012.6 |
| 20260831211813 | 96 | 360 | 1.0 | 3.0 | 0.00 | 0.00 | 0.00 | 52 | 1012.6 |
| 20260831211312 | 97 | 360 | 0.0 | 3.0 | 0.00 | 0.00 | 0.00 | 50 | 1012.6 |
| 20260831210831 | 97 | 360 | 1.0 | 6.0 | 0.00 | 0.00 | 0.00 | 52 | 1012.8 |
| 20260831210331 | 98 | 360 | 3.0 | 10.0 | 0.00 | 0.00 | 0.00 | 49 | 1012.9 |
| 20260831205830 | 100 | 360 | 3.0 | 10.0 | 0.00 | 0.00 | 0.00 | 50 | 1012.9 |
| 20260831205328 | 101 | 360 | 3.0 | 9.0 | 0.00 | 0.00 | 0.00 | 46 | 1013.0 |
| 20260831204826 | 102 | 360 | 2.0 | 6.0 | 0.00 | 0.00 | 0.00 | 42 | 1013.0 |
| 20260831204326 | 102 | 360 | 3.0 | 8.0 | 0.00 | 0.00 | 0.00 | 45 | 1013.1 |
| 20260831203826 | 102 | 360 | 3.0 | 8.0 | 0.00 | 0.00 | 0.00 | 41 | 1013.2 |
| 20260831203326 | 102 | 360 | 1.0 | 9.0 | 0.00 | 0.00 | 0.00 | 43 | 1013.4 |
| 20260831202845 | 101 | 360 | 2.0 | 9.0 | 0.00 | 0.00 | 0.00 | 45 | 1013.4 |
| 20260831202323 | 101 | 360 | 4.0 | 9.0 | 0.00 | 0.00 | 0.00 | 46 | 1013.6 |
| 20260831201842 | 101 | 360 | 3.0 | 9.0 | 0.00 | 0.00 | 0.00 | 46 | 1013.6 |
| 20260831201321 | 101 | 360 | 3.0 | 9.0 | 0.00 | 0.00 | 0.00 | 46 | 1013.8 |
| 20260831200820 | 102 | 360 | 3.0 | 12.0 | 0.00 | 0.00 | 0.00 | 44 | 1013.8 |
| 20260831200320 | 102 | 360 | 6.0 | 12.0 | 0.00 | 0.00 | 0.00 | 47 | 1013.8 |
| 20260831195818 | 101 | 360 | 6.0 | 11.0 | 0.00 | 0.00 | 0.00 | 48 | 1013.8 |
| 20260831195315 | 100 | 360 | 3.0 | 11.0 | 0.00 | 0.00 | 0.00 | 49 | 1014.0 |
| 20260831194827 | 99 | 360 | 4.0 | 11.0 | 0.00 | 0.00 | 0.00 | 49 | 1014.1 |
| 20260831194326 | 99 | 360 | 2.0 | 11.0 | 0.00 | 0.00 | 0.00 | 47 | 1014.2 |
| 20260831193825 | 100 | 360 | 5.0 | 12.0 | 0.00 | 0.00 | 0.00 | 45 | 1014.3 |
| 20260831193325 | 100 | 360 | 6.0 | 11.0 | 0.00 | 0.00 | 0.00 | 50 | 1014.3 |
| 20260831192841 | 100 | 360 | 5.0 | 12.0 | 0.00 | 0.00 | 0.00 | 46 | 1014.3 |
| 20260831192339 | 100 | 360 | 5.0 | 12.0 | 0.00 | 0.00 | 0.00 | 47 | 1014.5 |
| 20260831191811 | 99 | 360 | 4.0 | 12.0 | 0.00 | 0.00 | 0.00 | 51 | 1014.5 |
| 20260831191330 | 99 | 360 | 5.0 | 12.0 | 0.00 | 0.00 | 0.00 | 47 | 1014.6 |
| 20260831190851 | 99 | 360 | 3.0 | 9.0 | 0.00 | 0.00 | 0.00 | 52 | 1014.7 |
| 20260831190350 | 99 | 360 | 3.0 | 9.0 | 0.00 | 0.00 | 0.00 | 53 | 1014.7 |
| 20260831185848 | 99 | 360 | 4.0 | 9.0 | 0.00 | 0.00 | 0.00 | 49 | 1014.8 |
| 20260831185327 | 99 | 360 | 3.0 | 9.0 | 0.00 | 0.00 | 0.00 | 49 | 1014.9 |
| 20260831184827 | 98 | 360 | 2.0 | 9.0 | 0.00 | 0.00 | 0.00 | 49 | 1014.9 |
| 20260831184348 | 99 | 360 | 3.0 | 9.0 | 0.00 | 0.00 | 0.00 | 49 | 1015.0 |
| 20260831183847 | 99 | 360 | 2.0 | 11.0 | 0.00 | 0.00 | 0.00 | 51 | 1015.1 |
| 20260831183325 | 98 | 360 | 4.0 | 11.0 | 0.00 | 0.00 | 0.00 | 52 | 1015.2 |
| 20260831182812 | 98 | 360 | 4.0 | 10.0 | 0.00 | 0.00 | 0.00 | 52 | 1015.2 |
| 20260831182328 | 98 | 360 | 5.0 | 10.0 | 0.00 | 0.00 | 0.00 | 52 | 1015.3 |
| 20260831181829 | 98 | 360 | 3.0 | 12.0 | 0.00 | 0.00 | 0.00 | 51 | 1015.4 |
| 20260831181327 | 98 | 360 | 5.0 | 11.0 | 0.00 | 0.00 | 0.00 | 51 | 1015.4 |
| 20260831180827 | 97 | 360 | 3.0 | 8.0 | 0.00 | 0.00 | 0.00 | 58 | 1015.3 |
| 20260831180325 | 96 | 360 | 2.0 | 8.0 | 0.00 | 0.00 | 0.00 | 57 | 1015.4 |
| 20260831175843 | 96 | 360 | 3.0 | 10.0 | 0.00 | 0.00 | 0.00 | 54 | 1015.4 |
| 20260831175342 | 96 | 360 | 4.0 | 10.0 | 0.00 | 0.00 | 0.00 | 56 | 1015.5 |
| 20260831174841 | 96 | 360 | 3.0 | 12.0 | 0.00 | 0.00 | 0.00 | 59 | 1015.6 |
| 20260831174319 | 95 | 360 | 5.0 | 12.0 | 0.00 | 0.00 | 0.00 | 61 | 1015.9 |
| 20260831173833 | 94 | 360 | 5.0 | 9.0 | 0.00 | 0.00 | 0.00 | 59 | 1015.9 |
| 20260831173312 | 93 | 360 | 1.0 | 4.0 | 0.00 | 0.00 | 0.00 | 65 | 1015.9 |
| 20260831172831 | 93 | 360 | 2.0 | 4.0 | 0.00 | 0.00 | 0.00 | 64 | 1016.0 |
| 20260831172330 | 92 | 360 | 2.0 | 9.0 | 0.00 | 0.00 | 0.00 | 63 | 1016.1 |
| 20260831171826 | 93 | 360 | 4.0 | 10.0 | 0.00 | 0.00 | 0.00 | 61 | 1016.2 |
| 20260831171326 | 94 | 360 | 5.0 | 10.0 | 0.00 | 0.00 | 0.00 | 62 | 1016.1 |
| 20260831170825 | 94 | 360 | 5.0 | 8.0 | 0.00 | 0.00 | 0.00 | 61 | 1016.2 |
| 20260831170322 | 94 | 360 | 1.0 | 6.0 | 0.00 | 0.00 | 0.00 | 63 | 1016.3 |
| 20260831165843 | 93 | 360 | 4.0 | 11.0 | 0.00 | 0.00 | 0.00 | 61 | 1016.3 |
| 20260831165321 | 92 | 360 | 4.0 | 10.0 | 0.00 | 0.00 | 0.00 | 64 | 1016.3 |
| 20260831164821 | 92 | 360 | 2.0 | 5.0 | 0.00 | 0.00 | 0.00 | 65 | 1016.3 |
| 20260831164318 | 92 | 360 | 1.0 | 6.0 | 0.00 | 0.00 | 0.00 | 67 | 1016.3 |
| 20260831163816 | 92 | 360 | 2.0 | 12.0 | 0.00 | 0.00 | 0.00 | 67 | 1016.4 |
| 20260831163312 | 93 | 360 | 6.0 | 12.0 | 0.00 | 0.00 | 0.00 | 62 | 1016.4 |
| 20260831162812 | 93 | 360 | 3.0 | 8.0 | 0.00 | 0.00 | 0.00 | 63 | 1016.3 |
| 20260831162330 | 92 | 360 | 2.0 | 8.0 | 0.00 | 0.00 | 0.00 | 67 | 1016.3 |
| 20260831161828 | 91 | 360 | 3.0 | 10.0 | 0.00 | 0.00 | 0.00 | 70 | 1016.4 |
| 20260831161327 | 92 | 360 | 3.0 | 10.0 | 0.00 | 0.00 | 0.00 | 68 | 1016.5 |
| 20260831160825 | 91 | 360 | 2.0 | 9.0 | 0.00 | 0.00 | 0.00 | 72 | 1016.4 |
| 20260831160344 | 90 | 360 | 4.0 | 10.0 | 0.00 | 0.00 | 0.00 | 70 | 1016.3 |
| 20260831155822 | 90 | 360 | 5.0 | 10.0 | 0.00 | 0.00 | 0.00 | 70 | 1016.4 |
| 20260831155342 | 90 | 360 | 6.0 | 10.0 | 0.00 | 0.00 | 0.00 | 72 | 1016.4 |
| 20260831154840 | 89 | 360 | 2.0 | 10.0 | 0.00 | 0.00 | 0.00 | 72 | 1016.3 |
| 20260831154317 | 89 | 360 | 3.0 | 9.0 | 0.00 | 0.00 | 0.00 | 75 | 1016.3 |
| 20260831153817 | 88 | 360 | 1.0 | 6.0 | 0.00 | 0.00 | 0.00 | 79 | 1016.3 |
| 20260831153318 | 88 | 360 | 3.0 | 8.0 | 0.00 | 0.00 | 0.00 | 78 | 1016.3 |
| 20260831152816 | 88 | 360 | 4.0 | 10.0 | 0.00 | 0.00 | 0.00 | 76 | 1016.3 |
| 20260831152335 | 88 | 360 | 4.0 | 9.0 | 0.00 | 0.00 | 0.00 | 77 | 1016.3 |
| 20260831151831 | 88 | 360 | 3.0 | 9.0 | 0.00 | 0.00 | 0.00 | 78 | 1016.3 |
| 20260831151329 | 87 | 360 | 4.0 | 11.0 | 0.00 | 0.00 | 0.00 | 78 | 1016.3 |
| 20260831150826 | 87 | 360 | 4.0 | 11.0 | 0.00 | 0.00 | 0.00 | 80 | 1016.2 |
| 20260831150342 | 86 | 360 | 3.0 | 8.0 | 0.00 | 0.00 | 0.00 | 80 | 1016.2 |
| 20260831145820 | 86 | 360 | 2.0 | 8.0 | 0.00 | 0.00 | 0.00 | 82 | 1016.2 |
| 20260831145320 | 86 | 360 | 3.0 | 10.0 | 0.00 | 0.00 | 0.00 | 84 | 1016.2 |
| 20260831144839 | 85 | 360 | 5.0 | 9.0 | 0.00 | 0.00 | 0.00 | 83 | 1016.1 |
| 20260831144317 | 85 | 360 | 2.0 | 6.0 | 0.00 | 0.00 | 0.00 | 85 | 1016.2 |
| 20260831143815 | 85 | 360 | 3.0 | 6.0 | 0.00 | 0.00 | 0.00 | 88 | 1016.1 |
| 20260831143313 | 84 | 360 | 2.0 | 8.0 | 0.00 | 0.00 | 0.00 | 88 | 1016.1 |
| 20260831142853 | 84 | 360 | 3.0 | 8.0 | 0.00 | 0.00 | 0.00 | 91 | 1016.0 |
| 20260831142331 | 83 | 360 | 1.0 | 2.0 | 0.00 | 0.00 | 0.00 | 94 | 1016.0 |
| 20260831141848 | 82 | 360 | 1.0 | 2.0 | 0.00 | 0.00 | 0.00 | 95 | 1016.0 |
| 20260831141327 | 81 | 360 | 1.0 | 3.0 | 0.00 | 0.00 | 0.00 | 96 | 1016.0 |
| 20260831140846 | 81 | 360 | 2.0 | 3.0 | 0.00 | 0.00 | 0.00 | 97 | 1016.0 |
| 20260831140324 | 80 | 360 | 0.0 | 2.0 | 0.00 | 0.00 | 0.00 | 98 | 1016.0 |
| 20260831135824 | 79 | 360 | 0.0 | 3.0 | 0.00 | 0.00 | 0.00 | 98 | 1016.0 |
| 20260831135322 | 79 | 360 | 1.0 | 3.0 | 0.00 | 0.00 | 0.00 | 99 | 1015.9 |
| 20260831134822 | 78 | 360 | 0.0 | 2.0 | 0.00 | 0.00 | 0.00 | 99 | 1015.8 |
| 20260831134321 | 78 | 360 | 1.0 | 2.0 | 0.00 | 0.00 | 0.00 | 99 | 1015.8 |
| 20260831133821 | 77 | 360 | 0.0 | 2.0 | 0.00 | 0.00 | 0.00 | 99 | 1015.8 |
| 20260831133318 | 77 | 360 | 0.0 | 2.0 | 0.00 | 0.00 | 0.00 | 99 | 1015.8 |
| 20260831132837 | 76 | 360 | 0.0 | 2.0 | 0.00 | 0.00 | 0.00 | 99 | 1015.7 |
| 20260831132316 | 75 | 360 | 0.0 | 3.0 | 0.00 | 0.00 | 0.00 | 99 | 1015.6 |
| 20260831131815 | 75 | 360 | 1.0 | 3.0 | 0.00 | 0.00 | 0.00 | 98 | 1015.7 |
| 20260831131316 | 74 | 360 | 0.0 | 1.0 | 0.00 | 0.00 | 0.00 | 98 | 1015.6 |
| 20260831130818 | 74 | 360 | 0.0 | 0.0 | 0.00 | 0.00 | 0.00 | 98 | 1015.5 |
| 20260831130316 | 74 | 360 | 0.0 | 0.0 | 0.00 | 0.00 | 0.00 | 98 | 1015.6 |
| 20260831125815 | 74 | 360 | 0.0 | 0.0 | 0.00 | 0.00 | 0.00 | 97 | 1015.5 |
| 20260831125313 | 74 | 360 | 0.0 | 0.0 | 0.00 | 0.00 | 0.00 | 97 | 1015.5 |
| 20260831124813 | 73 | 360 | 0.0 | 0.0 | 0.00 | 0.00 | 0.00 | 97 | 1015.5 |
| 20260831124312 | 73 | 360 | 0.0 | 0.0 | 0.00 | 0.00 | 0.00 | 97 | 1015.4 |
| 20260831123847 | 73 | 360 | 0.0 | 0.0 | 0.00 | 0.00 | 0.00 | 97 | 1015.3 |
| 20260831123324 | 73 | 360 | 0.0 | 0.0 | 0.00 | 0.00 | 0.00 | 97 | 1015.2 |
| 20260831122823 | 73 | 360 | 0.0 | 0.0 | 0.00 | 0.00 | 0.00 | 97 | 1015.1 |
| 20260831122323 | 73 | 360 | 0.0 | 0.0 | 0.00 | 0.00 | 0.00 | 97 | 1015.1 |
| 20260831121843 | 73 | 360 | 0.0 | 0.0 | 0.00 | 0.00 | 0.00 | 96 | 1015.1 |
| 20260831121321 | 73 | 360 | 0.0 | 0.0 | 0.00 | 0.00 | 0.00 | 96 | 1014.9 |
| 20260831120821 | 73 | 360 | 0.0 | 0.0 | 0.00 | 0.00 | 0.00 | 96 | 1015.0 |
| 20260831120321 | 73 | 360 | 0.0 | 0.0 | 0.00 | 0.00 | 0.00 | 96 | 1015.0 |
| 20260831115822 | 73 | 360 | 0.0 | 0.0 | 0.00 | 0.00 | 0.00 | 96 | 1015.0 |
| 20260831115342 | 73 | 360 | 0.0 | 0.0 | 0.00 | 0.00 | 0.00 | 96 | 1015.0 |
| 20260831114820 | 74 | 360 | 0.0 | 0.0 | 0.00 | 0.00 | 0.00 | 96 | 1015.0 |
| 20260831114318 | 74 | 360 | 0.0 | 0.0 | 0.00 | 0.00 | 0.00 | 96 | 1014.9 |
| 20260831113836 | 74 | 360 | 0.0 | 0.0 | 0.00 | 0.00 | 0.00 | 96 | 1014.9 |
| 20260831113336 | 74 | 360 | 0.0 | 0.0 | 0.00 | 0.00 | 0.00 | 96 | 1014.9 |
| 20260831112815 | 74 | 360 | 0.0 | 0.0 | 0.00 | 0.00 | 0.00 | 96 | 1014.9 |
| 20260831112312 | 74 | 360 | 0.0 | 0.0 | 0.00 | 0.00 | 0.00 | 96 | 1014.9 |
| 20260831111831 | 74 | 360 | 0.0 | 0.0 | 0.00 | 0.00 | 0.00 | 96 | 1014.9 |
| 20260831111330 | 74 | 360 | 0.0 | 0.0 | 0.00 | 0.00 | 0.00 | 96 | 1014.9 |
| 20260831110829 | 74 | 360 | 0.0 | 0.0 | 0.00 | 0.00 | 0.00 | 96 | 1015.0 |
| 20260831110329 | 74 | 360 | 0.0 | 0.0 | 0.00 | 0.00 | 0.00 | 96 | 1015.0 |
| 20260831105827 | 74 | 360 | 0.0 | 0.0 | 0.00 | 0.00 | 0.00 | 96 | 1015.0 |
| 20260831105327 | 74 | 360 | 0.0 | 0.0 | 0.00 | 0.00 | 0.00 | 96 | 1014.9 |
| 20260831104312 | 74 | 360 | 0.0 | 0.0 | 0.00 | 0.00 | 0.00 | 95 | 1014.8 |
| 20260831102329 | 75 | 360 | 0.0 | 0.0 | 0.00 | 0.00 | 0.00 | 95 | 1014.8 |
| 20260831101827 | 75 | 360 | 0.0 | 0.0 | 0.00 | 0.00 | 0.00 | 95 | 1014.8 |
| 20260831101327 | 75 | 360 | 0.0 | 0.0 | 0.00 | 0.00 | 0.00 | 96 | 1014.9 |
| 20260831100825 | 75 | 360 | 0.0 | 0.0 | 0.00 | 0.00 | 0.00 | 95 | 1014.9 |
| 20260831100325 | 75 | 360 | 0.0 | 0.0 | 0.00 | 0.00 | 0.00 | 96 | 1014.9 |